Flag for Belgium Weather past 2 weeks in Kortrijk, Belgium

Now
52 °F

Light rain. Low clouds.


Feels Like: 45 °F
Forecast: 41 / 52 °F
Wind: 23 mph from Southwest

Location: Lille Airport

Current Time: Mar 29, 2015 at 2:33:41 PM

Latest Report: Mar 29, 2015 at 2:00 PM


Visibility: 5 mi

Pressure: 29.53 "Hg

Humidity: 94%

Dew point: 50 °F

Location of KortrijkLocation

Historic Weather in Kortrijk — Graph

°F

Kortrijk temperature yesterday

Maximum temperature yesterday: 57 °F (at 5:00 PM)
Minimum temperature yesterday: 37 °F (at 4:00 AM)
Average temperature yesterday: 48 °F

Past Weeks' High & Low Weather Summary

 TemperatureHumidityPressure
High63 °F (Mar 17, 3:30 PM)100% (Mar 15, 12:30 AM)30.42 "Hg (Mar 15, 12:30 AM)
Low30 °F (Mar 23, 3:00 AM)39% (Mar 17, 3:30 PM)29.56 "Hg (Mar 29, 1:00 PM)
Average43 °F83%30.10 "Hg
* Reported Mar 14 12:00 Noon — Mar 29 1:30 PM, Kortrijk, Weather by CustomWeather, © 2015

Note: Actual official high and low records may vary slightly from our data, if they occured in-between our weather recording intervals... More about our weather records

Advertising

Kortrijk weather history for previous 24 hours

 ConditionsComfort  
Time TempWeatherWind HumidityBarometerVisibility
1:30 PM
Sun, Mar 29
52 °FLight rain. Low clouds.24 mph94%29.56 "HgN/A
1:00 PM52 °FLight rain. Overcast.23 mph94%29.56 "HgN/A
12:30 PM52 °FDrizzle. Overcast.20 mph94%29.59 "Hg5 mi
12:00 PM50 °FDrizzle. Low clouds.17 mph100%29.62 "Hg3 mi
11:30 AM50 °FDrizzle. Low clouds.20 mph94%29.62 "Hg2 mi
11:00 AM50 °FDrizzle. Partly sunny.17 mph94%29.65 "Hg4 mi
10:30 AM50 °FDrizzle. Partly sunny.16 mph94%29.65 "Hg4 mi
10:00 AM50 °FDrizzle. Partly sunny.14 mph94%29.68 "HgN/A
9:30 AM50 °FDrizzle. Partly sunny.15 mph94%29.68 "HgN/A
9:00 AM50 °FDrizzle. More clouds than sun.18 mph94%29.71 "HgN/A
8:30 AM50 °FMostly cloudy.18 mph94%29.74 "HgN/A
8:00 AM48 °FLight rain. Overcast.20 mph100%29.74 "Hg3 mi
7:30 AM48 °FLight rain. Overcast.18 mph94%29.74 "Hg5 mi
7:00 AM48 °FLight rain. Overcast.18 mph94%29.74 "Hg4 mi
6:30 AM48 °FLight rain. Overcast.17 mph94%29.77 "Hg4 mi
6:00 AM50 °FOvercast.22 mph82%29.80 "HgN/A
5:30 AM50 °FOvercast.22 mph82%29.80 "HgN/A
5:00 AM50 °FOvercast.24 mph82%29.80 "HgN/A
4:30 AM50 °FOvercast.22 mph76%29.80 "HgN/A
4:00 AM50 °FPassing clouds.28 mph82%29.80 "HgN/A
3:30 AM52 °FOvercast.25 mph77%29.80 "HgN/A
3:00 AM52 °FMostly cloudy.26 mph82%29.80 "HgN/A
1:30 AM52 °FMostly cloudy.22 mph82%29.83 "HgN/A
1:00 AM52 °FPassing clouds.22 mph82%29.83 "HgN/A
12:30 AM52 °FOvercast.24 mph82%29.83 "HgN/A
12:00 AM52 °FOvercast.22 mph82%29.83 "HgN/A
11:30 PM
Sat, Mar 28
52 °FOvercast.23 mph82%29.80 "HgN/A
11:00 PM52 °FPassing clouds.25 mph88%29.86 "HgN/A
10:30 PM52 °FPassing clouds.26 mph88%29.86 "HgN/A
10:00 PM54 °FLight rain. Passing clouds.25 mph88%29.86 "HgN/A
9:30 PM54 °FLight rain. Passing clouds.21 mph94%29.83 "HgN/A
9:00 PM54 °FLight rain. Passing clouds.18 mph94%29.86 "Hg4 mi
8:30 PM54 °FLight rain. Passing clouds.18 mph94%29.86 "Hg4 mi
8:00 PM54 °FLight rain. Passing clouds.17 mph94%29.86 "Hg4 mi
7:30 PM54 °FLight rain. Passing clouds.14 mph94%29.86 "Hg4 mi
7:00 PM54 °FPartly sunny.18 mph94%29.89 "HgN/A
6:30 PM54 °FLight rain. Mostly cloudy.15 mph94%29.89 "HgN/A
6:00 PM54 °FLight rain. Partly sunny.16 mph94%29.89 "HgN/A
5:30 PM55 °FLight rain. Partly sunny.17 mph82%29.89 "HgN/A
5:00 PM57 °FPartly sunny.15 mph77%29.89 "HgN/A
4:30 PM55 °FPartly sunny.12 mph82%29.92 "HgN/A
4:00 PM55 °FPartly sunny.16 mph82%29.92 "HgN/A
3:30 PM55 °FPartly sunny.14 mph82%29.95 "HgN/A
3:00 PM54 °FOvercast.20 mph88%29.95 "HgN/A
2:30 PM54 °FOvercast.21 mph88%29.98 "HgN/A
2:00 PM54 °FOvercast.20 mph88%29.98 "HgN/A
Weather by CustomWeather, © 2015

See weather overviewHow to use our weather pages